| time (UTC) | temp F | wind direction | speed knots | gust knots | rain 1hr in | rain 24hr in | rain mn in | humidity % | barometer mb |
| 20260507022555 | 46 | 236 | 0.0 | 0.9 | 0.00 | 0.00 | 0.00 | 89 | 1007.7 |
| 20260507021054 | 47 | 213 | 0.0 | 0.9 | 0.00 | 0.00 | 0.00 | 88 | 1008.0 |
| 20260507015555 | 49 | 199 | 0.0 | 0.9 | 0.00 | 0.00 | 0.00 | 86 | 1007.9 |
| 20260507012555 | 49 | 188 | 0.0 | 0.9 | 0.00 | 0.00 | 0.00 | 84 | 1008.2 |
| 20260507011055 | 49 | 74 | 0.0 | 0.9 | 0.00 | 0.00 | 0.00 | 82 | 1008.2 |
| 20260507005555 | 49 | 188 | 0.0 | 0.9 | 0.00 | 0.00 | 0.00 | 81 | 1008.6 |
| 20260507004055 | 49 | 195 | 0.9 | 0.9 | 0.00 | 0.00 | 0.00 | 81 | 1008.6 |
| 20260507002554 | 50 | 198 | 0.0 | 0.9 | 0.00 | 0.00 | 0.00 | 82 | 1008.5 |
| 20260507001138 | 50 | 93 | 0.0 | 0.9 | 0.00 | 0.00 | 0.00 | 84 | 1008.7 |
| 20260506235627 | 50 | 143 | 0.0 | 1.7 | 0.00 | 0.00 | 0.00 | 87 | 1008.8 |
| 20260506234119 | 51 | 125 | 0.9 | 1.7 | 0.00 | 0.00 | 0.00 | 89 | 1008.9 |
| 20260506232612 | 51 | 57 | 0.9 | 1.7 | 0.00 | 0.00 | 0.00 | 90 | 1008.8 |
| 20260506225559 | 52 | 265 | 0.0 | 1.7 | 0.00 | 0.00 | 0.00 | 87 | 1009.0 |
| 20260506224055 | 52 | 206 | 0.0 | 0.9 | 0.00 | 0.00 | 0.00 | 85 | 1009.0 |
| 20260506222555 | 52 | 230 | 0.0 | 0.9 | 0.00 | 0.00 | 0.00 | 85 | 1009.0 |
| 20260506221055 | 52 | 227 | 0.0 | 0.9 | 0.00 | 0.00 | 0.00 | 85 | 1009.2 |
| 20260506215555 | 52 | 184 | 0.0 | 0.9 | 0.00 | 0.00 | 0.00 | 85 | 1009.1 |
| 20260506214055 | 52 | 202 | 0.0 | 0.9 | 0.00 | 0.00 | 0.00 | 85 | 1009.1 |
| 20260506212555 | 52 | 185 | 0.0 | 0.9 | 0.00 | 0.00 | 0.00 | 85 | 1009.0 |
| 20260506205555 | 52 | 211 | 0.0 | 0.9 | 0.00 | 0.00 | 0.00 | 84 | 1009.0 |
| 20260506204055 | 53 | 199 | 0.0 | 0.9 | 0.00 | 0.00 | 0.00 | 84 | 1008.9 |
| 20260506202555 | 52 | 180 | 0.9 | 1.7 | 0.00 | 0.00 | 0.00 | 85 | 1008.8 |
| 20260506201056 | 52 | 244 | 0.0 | 1.7 | 0.00 | 0.00 | 0.00 | 85 | 1008.6 |
| 20260506195556 | 52 | 180 | 0.9 | 1.7 | 0.00 | 0.00 | 0.00 | 85 | 1008.4 |
| 20260506194056 | 53 | 197 | 0.0 | 1.7 | 0.00 | 0.00 | 0.00 | 83 | 1008.6 |
| 20260506192557 | 53 | 179 | 0.0 | 2.6 | 0.00 | 0.00 | 0.00 | 84 | 1008.3 |
| 20260506191101 | 53 | 207 | 0.0 | 2.6 | 0.00 | 0.00 | 0.00 | 83 | 1008.3 |
| 20260506185557 | 53 | 280 | 0.0 | 3.5 | 0.00 | 0.00 | 0.00 | 83 | 1007.9 |
| 20260506184056 | 54 | 200 | 1.7 | 3.5 | 0.00 | 0.00 | 0.00 | 82 | 1007.8 |
| 20260506182556 | 55 | 167 | 1.7 | 2.6 | 0.00 | 0.00 | 0.00 | 82 | 1007.6 |
| 20260506181057 | 55 | 174 | 0.0 | 2.6 | 0.00 | 0.00 | 0.00 | 81 | 1007.6 |
| 20260506175557 | 56 | 213 | 0.9 | 2.6 | 0.00 | 0.00 | 0.00 | 82 | 1007.3 |
| 20260506174056 | 56 | 190 | 0.9 | 3.5 | 0.00 | 0.00 | 0.00 | 78 | 1007.3 |
| 20260506164056 | 60 | 251 | 0.9 | 3.5 | 0.00 | 0.00 | 0.00 | 70 | 1007.2 |
| 20260506162557 | 59 | 162 | 2.6 | 4.3 | 0.00 | 0.00 | 0.00 | 73 | 1007.1 |
| 20260506161056 | 60 | 160 | 1.7 | 3.5 | 0.00 | 0.00 | 0.00 | 69 | 1007.2 |
| 20260506155556 | 60 | 189 | 2.6 | 3.5 | 0.00 | 0.00 | 0.00 | 66 | 1007.2 |
| 20260506154056 | 61 | 168 | 0.9 | 4.3 | 0.00 | 0.00 | 0.00 | 68 | 1007.3 |
| 20260506152556 | 61 | 255 | 0.9 | 3.5 | 0.00 | 0.00 | 0.00 | 69 | 1007.4 |
| 20260506145639 | 61 | 178 | 0.9 | 4.3 | 0.00 | 0.00 | 0.00 | 68 | 1007.3 |
| 20260506144129 | 62 | 275 | 0.9 | 3.5 | 0.00 | 0.00 | 0.00 | 62 | 1007.7 |
| 20260506141113 | 64 | 161 | 1.7 | 2.6 | 0.00 | 0.00 | 0.00 | 54 | 1007.6 |
| 20260506134057 | 64 | 21 | 0.9 | 4.3 | 0.00 | 0.00 | 0.00 | 46 | 1007.5 |
| 20260506131057 | 65 | 175 | 0.9 | 1.7 | 0.00 | 0.00 | 0.00 | 40 | 1007.6 |
| 20260506125556 | 66 | 124 | 0.9 | 2.6 | 0.00 | 0.00 | 0.00 | 40 | 1007.5 |
| 20260506124056 | 67 | 166 | 0.0 | 3.5 | 0.00 | 0.00 | 0.00 | 40 | 1007.8 |
| 20260506122556 | 70 | 140 | 0.9 | 1.7 | 0.00 | 0.00 | 0.00 | 36 | 1007.8 |
| 20260506121056 | 69 | 206 | 0.9 | 2.6 | 0.00 | 0.00 | 0.00 | 36 | 1008.0 |
| 20260506115556 | 68 | 215 | 0.9 | 1.7 | 0.00 | 0.00 | 0.00 | 37 | 1008.2 |
| 20260506114100 | 65 | 173 | 0.0 | 1.7 | 0.00 | 0.00 | 0.00 | 39 | 1008.2 |
| 20260506111056 | 65 | 123 | 0.9 | 2.6 | 0.00 | 0.00 | 0.00 | 39 | 1008.4 |
| 20260506105556 | 65 | 147 | 0.0 | 3.5 | 0.00 | 0.00 | 0.00 | 41 | 1008.7 |
| 20260506104057 | 64 | 135 | 0.0 | 2.6 | 0.00 | 0.00 | 0.00 | 41 | 1008.7 |
| 20260506102556 | 62 | 120 | 0.9 | 3.5 | 0.00 | 0.00 | 0.00 | 43 | 1008.7 |
| 20260506101057 | 64 | 202 | 1.7 | 2.6 | 0.00 | 0.00 | 0.00 | 40 | 1008.8 |
| 20260506095556 | 63 | 218 | 0.0 | 3.5 | 0.00 | 0.00 | 0.00 | 42 | 1008.7 |
| 20260506094057 | 64 | 243 | 0.0 | 2.6 | 0.00 | 0.00 | 0.00 | 41 | 1008.8 |
| 20260506092556 | 64 | 201 | 0.9 | 2.6 | 0.00 | 0.00 | 0.00 | 40 | 1008.7 |
| 20260506091056 | 63 | 205 | 0.0 | 2.6 | 0.00 | 0.00 | 0.00 | 41 | 1008.5 |
| 20260506085556 | 63 | 239 | 0.9 | 1.7 | 0.00 | 0.00 | 0.00 | 40 | 1008.6 |
| 20260506084056 | 64 | 168 | 0.9 | 0.9 | 0.00 | 0.00 | 0.00 | 40 | 1008.4 |
| 20260506082556 | 62 | 190 | 0.0 | 0.9 | 0.00 | 0.00 | 0.00 | 43 | 1008.5 |
| 20260506081057 | 60 | 176 | 0.9 | 0.9 | 0.00 | 0.00 | 0.00 | 45 | 1008.5 |
| 20260506071056 | 52 | 217 | 0.0 | 1.7 | 0.00 | 0.00 | 0.00 | 65 | 1008.6 |
| 20260506061056 | 46 | 284 | 0.0 | 0.9 | 0.00 | 0.00 | 0.00 | 75 | 1008.6 |
| 20260506044105 | 45 | 269 | 0.9 | 0.9 | 0.00 | 0.00 | 0.00 | 76 | 1008.2 |
| 20260506042557 | 45 | 259 | 0.0 | 0.9 | 0.00 | 0.00 | 0.00 | 76 | 1008.2 |
| 20260506041100 | 46 | 258 | 0.0 | 0.9 | 0.00 | 0.00 | 0.00 | 74 | 1008.1 |
| 20260506035557 | 46 | 259 | 0.9 | 0.9 | 0.00 | 0.00 | 0.00 | 74 | 1008.2 |
| 20260506034056 | 46 | 268 | 0.0 | 0.9 | 0.00 | 0.00 | 0.00 | 73 | 1008.3 |
| 20260506025556 | 47 | 242 | 0.0 | 0.9 | 0.00 | 0.00 | 0.00 | 72 | 1008.7 |
| 20260506024056 | 47 | 259 | 0.9 | 0.9 | 0.00 | 0.00 | 0.00 | 72 | 1008.8 |